Location: Cumbre Roja
(10.2766°N, 67.0675°W)
Time: 23:28:36
(UTC+00:00)

DNEPR-1 R/B - Pass Details

Date: 18 November 2025
Orbit: 587 x 1326 km, 64.6° (Epoch: 14 December)

Event Time Altitude Azimuth Distance (km) Brightness Sun altitude
Rises 22:11:45 0° 342° (NNW) 3,181 7.2 -3.0°
Reaches altitude 10° 22:13:57 10° 344° (NNW) 2,348 6.5 -3.5°
Maximum altitude 22:19:22 71° 68° (ENE) 956 4.3 -4.7°
Drops below altitude 10° 22:26:01 10° 152° (SSE) 2,865 6.9 -6.3°
Sets 22:28:56 0° 154° (SSE) 3,934 7.6 -7.0°
